Orbital Elements at Epoch 2459200.5 (2020-Dec-17.0) TDB
Reference: JPL 19 (heliocentric ecliptic J2000)
Element | Value | Uncertainty (1-sigma) | Units |
e | .08127549329755426 | 3.6472e-08 | |
a | 2.435644478029484 | 1.5124e-08 | au |
q | 2.237686271580174 | 8.7687e-08 | au |
i | 13.23580273895073 | 6.7818e-06 | deg |
node | 104.4903104886837 | 1.7982e-05 | deg |
peri | 272.0241826769508 | 4.6441e-05 | deg |
M | 174.7555370241049 | 4.2518e-05 | deg |
tp | 2458526.518904074652 (2019-Feb-12.01890407) | 0.0001631 | TDB |
period | 1388.414917575159 3.80 | 1.2932e-05 3.541e-08 | d yr |
n | .2592884846186567 | 2.4151e-09 | deg/d |
Q | 2.633602684478795 | 1.6354e-08 | au |
|
| | Orbit Determination Parameters
Additional Information
|